Vertical_Velocity
-1 -1 -2 -0 -1 -1 0 -1 -1 -0 -1 -0 -1 -0 -0 -1 -1 -1 -1 -2 -1 -1 -2 -1 -1 -1 -2 -2 -2 -2 -2 -2 -2 0 -4 -0 -4 4 1 -5 3 2 3 -6 3
-1 -0 -0 -0 -0 1 1 -0 -0 -1 -1 -1 -0 1 -0 0 -1 -1 -1 -2 -2 -2 -1 1 0 -2 -2 -1 -1 -1 -0 -3 0 0 -2 -3 -3 1 -2 3 1 -1 3 -3 -2
-1 -2 -0 -1 -2 0 1 2 1 -1 -1 -1 -2 -0 0 -1 1 -2 -1 -1 -1 -2 -2 -3 -3 -2 -2 -1 -3 -2 -1 -3 3 -0 -3 -10 -3 -10 -3 -11 -4 0 3 4 -6
-2 -2 -1 0 -0 -1 -1 0 1 1 -0 -1 -2 -2 -1 -1 -1 -1 -2 -0 -1 -3 -4 -3 -1 -2 -2 -1 -2 -1 -1 -3 -2 -1 -5 -2 -11 -9 -9 0 -0 2 -1 3 0
-0 1 -2 -2 -1 -1 -2 -0 -1 0 1 -1 -1 -2 -2 -1 -0 -1 -2 -2 -2 -1 -1 -1 -1 -4 -3 -3 -1 -3 -2 -3 -2 -2 -2 -1 -2 -13 2 4 -0 -2 2 5 4
-3 -2 -2 -1 -2 -2 -2 -1 -1 -1 1 1 -1 -0 -1 -1 -1 -1 -1 -0 -1 -3 -2 -2 -4 -3 -2 -3 -2 -2 -2 -2 -2 -1 -2 -6 -2 2 15 -3 -4 -4 -2 -3 -2
-0 0 -2 -0 0 1 -0 -2 -2 -1 -2 1 0 -1 -0 -1 -0 -1 -0 -0 -2 -3 -3 -2 -3 -3 -2 -4 -4 -2 -5 0 -2 -1 -5 -5 -1 0 -1 -2 -4 -4 -2 -3 -2
-1 -5 -0 3 0 -1 1 1 -1 -2 -1 -1 0 0 -0 -1 -0 -0 -1 -1 -0 -2 -3 -2 -1 -2 -1 -2 -4 -5 -3 -9 3 1 1 1 -21 1 5 -7 -6 -6 -6 -8 -3
-0 1 -6 -6 -4 -1 -0 0 -0 -0 -2 -1 -0 1 0 -1 -1 -1 -0 -0 -1 -2 -2 -2 -1 -2 -3 -4 -3 -5 -6 -2 -10 -0 -7 0 -14 6 2 -2 -13 0 -3 -2 -9
-0 -2 -0 -1 -2 -4 -4 -4 1 -2 -1 -2 -1 0 -1 -1 -1 -2 -1 -0 0 -2 -3 -2 -2 -1 -3 -4 -2 -4 -6 -4 -3 -5 8 -3 -5 -5 3 -7 -8 -7 -2 0 -2
-2 0 -1 -0 0 -1 0 -5 0 -3 1 -0 -0 0 1 -1 -1 -1 -1 -2 -0 -1 -1 -2 -1 -0 -2 -3 -1 -1 1 -2 6 4 -11 1 -15 1 -2 -3 4 4 -2 -2 -2
-0 -2 -3 3 -1 -4 1 0 0 -2 -8 0 -0 1 -0 -0 -0 -2 -3 -3 -2 -1 -2 -2 -1 -0 0 -1 -2 2 -0 -1 -5 2 -2 2 -10 0 -1 -3 -3 -3 -1 -3 -2
-0 -2 -2 -3 -0 1 -0 0 -1 2 -2 -1 1 2 -2 -2 0 -3 -3 -2 -1 0 -2 -3 -2 1 0 1 -3 2 -2 -3 -2 -6 -0 -4 -10 -0 4 2 5 3 -4 -0 -7
-5 -4 1 -2 0 -1 -5 -2 -1 1 -5 2 1 0 -0 -1 -1 0 -1 -3 -2 -3 0 -3 -2 -1 1 -1 -1 -4 0 -0 1 0 -6 5 -11 0 -5 2 3 0 4 -2 -5
3 4 -3 -5 -5 -5 -5 -3 -3 1 -6 3 -1 -0 -2 0 -2 -2 -1 -2 -2 0 -0 2 -2 -3 -1 1 0 -3 -1 2 3 -0 -1 0 2 -16 -3 -6 -5 -13 -3 4 -2
1 1 0 -0 1 -4 -5 1 -2 -2 -9 1 3 -1 -2 -1 2 -1 -2 -2 -0 -2 0 3 0 -3 -2 0 -0 0 -4 1 -1 -1 -0 0 0 -19 -1 -3 -5 0 7 -1 -1
-2 -7 5 5 6 0 4 2 -4 -3 1 -1 1 1 0 -3 -3 1 0 -2 -2 -5 -2 0 1 -1 -1 -5 -2 -2 -2 -6 -7 -3 -6 3 3 -16 3 3 -1 -5 -2 1 -0
-5 -4 -1 -5 1 -1 1 -3 0 1 -0 -2 -2 -1 0 -0 0 -5 0 0 -1 -3 -4 -1 -9 -1 -0 -0 -0 -0 1 -2 -0 -2 -5 2 -5 0 5 3 7 1 -3 -1 -0
-3 0 -0 3 4 -2 4 1 -6 -0 1 1 -2 -2 -1 1 -1 -2 -2 1 1 -3 -4 -1 -5 -0 1 3 2 -1 -1 1 4 -0 5 -1 -4 -8 6 9 1 -5 -0 1 -1
2 -5 -7 -4 -1 4 -6 2 4 2 1 -1 -1 -1 -1 -3 -2 -1 -1 1 -0 2 -2 -0 -7 -4 -1 -1 0 -0 1 -1 1 1 -2 -5 -3 -10 -10 -7 0 -4 -3 2 1
1 -0 -3 -2 3 -0 -0 -2 1 -1 2 0 -1 -0 -1 -1 -3 -2 1 2 1 1 1 1 0 -1 -0 6 4 0 -2 -2 1 -0 2 -0 -11 5 3 -6 -3 -3 -0 -3 2
-0 3 1 5 -4 -2 -4 4 -1 7 -2 5 -0 1 0 0 -2 -2 -2 1 2 2 1 2 -2 -3 -4 0 -0 1 -0 2 2 -4 -1 2 -37 0 -1 0 3 -5 -0 -3 1
-5 1 0 2 -2 -2 -1 -0 -0 0 7 -2 1 1 1 -1 -2 -3 2 1 -0 2 4 2 5 -9 -7 -2 1 1 2 1 2 7 -5 8 -23 2 5 6 1 -3 -1 -3 -1
2 -3 -2 4 4 -1 2 3 -3 3 2 1 3 5 2 -2 3 0 -2 3 -2 -3 -1 4 2 -0 -6 -1 4 3 14 6 10 5 -2 -18 -26 7 1 1 1 0 -2 -2 -1
-5 0 -1 -4 -3 -3 -6 -15 3 -1 -5 6 9 5 -1 1 3 -2 -2 -1 2 -2 2 1 -3 1 2 -3 6 -2 -3 10 3 8 -2 -5 -4 5 2 -2 -1 -2 -2 -1 -1
1 -5 -4 2 -0 2 7 8 0 -1 -2 -2 -2 4 12 1 4 -6 -6 8 3 -3 0 3 -8 -4 -11 -1 1 -12 7 -0 -0 3 -2 3 -8 2 1 1 -0 -6 -2 1 -1
1 3 1 -1 3 -1 -2 3 -2 3 3 -1 2 -4 -1 10 1 0 3 -0 -5 -2 1 2 3 2 -13 -3 -4 -3 -2 2 0 0 5 1 1 3 1 -0 2 -3 -4 -3 -2
Height
3149 3147 3145 3143 3140 3138 3136 3134 3132 3131 3128 3126 3124 3122 3120 3118 3116 3114 3112 3110 3107 3103 3100 3097 3094 3092 3090 3088 3088 3088 3089 3087 3087 3086 3085 3086 3085 3087 3085 3084 3088 3089 3089 3092 3096
3152 3149 3146 3144 3141 3138 3136 3133 3131 3130 3128 3125 3123 3122 3120 3117 3115 3113 3111 3108 3105 3101 3099 3096 3093 3090 3088 3086 3086 3085 3085 3085 3084 3083 3082 3082 3081 3082 3080 3079 3082 3083 3083 3085 3091
3152 3150 3147 3144 3141 3139 3136 3133 3131 3129 3126 3124 3122 3120 3119 3117 3115 3112 3110 3107 3104 3101 3098 3095 3092 3090 3088 3085 3084 3083 3083 3083 3083 3081 3078 3078 3078 3078 3076 3074 3079 3078 3080 3081 3084
3153 3150 3148 3146 3143 3140 3136 3133 3131 3128 3126 3123 3121 3119 3117 3116 3117 3112 3109 3107 3104 3101 3098 3096 3093 3090 3087 3085 3084 3083 3081 3080 3079 3078 3076 3073 3073 3071 3070 3071 3070 3070 3071 3074 3077
3152 3150 3149 3146 3143 3141 3137 3134 3130 3128 3125 3122 3120 3118 3117 3115 3113 3111 3108 3105 3103 3101 3098 3096 3093 3090 3087 3085 3083 3081 3080 3079 3077 3075 3072 3070 3068 3066 3065 3066 3063 3060 3062 3065 3068
3152 3150 3147 3146 3144 3141 3138 3134 3130 3127 3124 3121 3119 3117 3115 3114 3112 3110 3107 3105 3102 3099 3097 3094 3092 3089 3087 3084 3082 3080 3077 3075 3074 3072 3068 3065 3063 3060 3062 3060 3057 3055 3055 3058 3059
3151 3149 3147 3145 3142 3140 3137 3134 3131 3127 3123 3121 3118 3115 3114 3114 3111 3108 3106 3104 3101 3098 3096 3093 3090 3088 3086 3083 3080 3078 3074 3072 3070 3068 3064 3059 3054 3055 3056 3055 3052 3050 3047 3049 3053
3150 3147 3144 3143 3141 3138 3135 3133 3130 3127 3122 3120 3116 3113 3112 3111 3109 3107 3105 3102 3100 3097 3095 3092 3089 3087 3084 3082 3079 3075 3072 3070 3069 3065 3063 3058 3044 3048 3051 3048 3045 3044 3043 3041 3045
3147 3145 3143 3140 3137 3135 3133 3131 3128 3125 3122 3118 3115 3113 3112 3110 3108 3105 3103 3101 3098 3096 3093 3090 3087 3085 3082 3079 3076 3073 3071 3069 3064 3062 3059 3056 3041 3044 3043 3040 3037 3036 3036 3035 3036
3144 3142 3139 3138 3135 3133 3130 3128 3126 3123 3120 3117 3115 3115 3111 3110 3107 3103 3101 3099 3097 3094 3091 3089 3086 3084 3081 3079 3077 3073 3069 3066 3064 3062 3055 3048 3038 3037 3034 3028 3027 3026 3026 3027 3028
3141 3138 3136 3134 3131 3129 3128 3125 3126 3122 3118 3116 3114 3112 3109 3108 3105 3102 3099 3097 3095 3092 3089 3087 3085 3083 3081 3078 3076 3072 3069 3066 3062 3059 3051 3044 3035 3031 3027 3023 3018 3017 3018 3018 3021
3136 3135 3131 3129 3127 3125 3123 3121 3120 3119 3115 3112 3111 3110 3108 3106 3103 3100 3098 3096 3093 3090 3088 3086 3083 3081 3079 3077 3074 3072 3067 3063 3057 3055 3049 3039 3031 3029 3024 3020 3016 3015 3014 3013 3014
3129 3127 3127 3125 3123 3122 3121 3119 3117 3115 3112 3109 3107 3107 3107 3105 3101 3099 3097 3094 3091 3088 3086 3084 3083 3080 3077 3076 3073 3071 3066 3061 3057 3047 3044 3037 3030 3026 3025 3021 3017 3015 3013 3010 3009
3123 3122 3120 3119 3122 3119 3118 3117 3116 3113 3108 3107 3106 3106 3106 3102 3100 3097 3095 3094 3090 3086 3084 3083 3081 3078 3076 3074 3072 3066 3063 3059 3054 3050 3045 3041 3034 3026 3023 3021 3018 3015 3011 3009 3006
3119 3116 3115 3114 3115 3115 3115 3113 3113 3113 3111 3106 3105 3105 3104 3103 3100 3097 3094 3091 3088 3085 3085 3082 3077 3076 3074 3073 3070 3067 3061 3056 3050 3047 3045 3040 3039 3023 3022 3019 3016 3013 3010 3006 3003
3115 3112 3112 3110 3109 3110 3110 3111 3111 3114 3107 3105 3103 3103 3103 3101 3099 3096 3093 3091 3087 3084 3082 3079 3075 3075 3073 3071 3068 3064 3059 3052 3047 3046 3045 3039 3039 3023 3022 3020 3016 3013 3009 3005 3001
3111 3109 3108 3108 3109 3107 3107 3108 3110 3107 3105 3104 3102 3101 3100 3099 3097 3095 3092 3089 3087 3084 3081 3077 3075 3073 3072 3070 3067 3063 3059 3053 3051 3048 3043 3038 3037 3022 3023 3020 3016 3011 3006 3002 2999
3107 3106 3104 3104 3103 3103 3103 3107 3107 3101 3100 3100 3100 3100 3099 3097 3095 3093 3091 3088 3086 3085 3081 3078 3074 3073 3071 3069 3066 3063 3062 3062 3062 3056 3042 3036 3031 3023 3022 3019 3016 3011 3006 3000 2996
3103 3102 3100 3101 3100 3100 3101 3099 3098 3099 3098 3096 3097 3096 3097 3096 3095 3091 3089 3087 3086 3085 3086 3081 3074 3072 3070 3067 3066 3062 3062 3061 3057 3049 3045 3031 3026 3023 3019 3018 3014 3009 3005 2998 2994
3098 3096 3096 3095 3096 3096 3097 3097 3095 3094 3095 3094 3094 3095 3094 3094 3094 3092 3088 3087 3085 3084 3083 3081 3074 3069 3068 3066 3064 3062 3062 3060 3058 3053 3044 3029 3024 3020 3017 3014 3011 3007 3002 2999 2996
3094 3092 3090 3090 3091 3093 3091 3092 3092 3092 3092 3092 3090 3091 3091 3091 3091 3090 3089 3087 3085 3083 3082 3079 3077 3069 3066 3064 3061 3060 3059 3059 3058 3054 3047 3039 3020 3019 3016 3013 3010 3007 3003 3000 2999
3090 3089 3087 3087 3090 3088 3089 3089 3089 3088 3088 3089 3087 3086 3087 3088 3087 3088 3087 3086 3084 3082 3080 3079 3075 3066 3062 3059 3058 3058 3057 3057 3056 3050 3046 3041 3018 3016 3014 3012 3009 3006 3004 3001 2999
3086 3085 3083 3083 3083 3082 3083 3084 3084 3087 3084 3084 3085 3083 3083 3084 3085 3083 3083 3083 3082 3081 3079 3077 3073 3068 3059 3061 3056 3054 3052 3052 3051 3048 3039 3039 3018 3014 3013 3010 3007 3003 3001 2999 2997
3082 3080 3079 3077 3077 3078 3078 3080 3081 3082 3082 3081 3079 3079 3080 3080 3080 3080 3080 3079 3077 3076 3076 3074 3069 3068 3065 3059 3057 3048 3046 3045 3045 3042 3032 3025 3012 3011 3009 3004 3003 3001 2999 2997 2995
3077 3077 3075 3075 3074 3073 3073 3076 3077 3077 3080 3080 3078 3075 3075 3076 3075 3075 3075 3072 3073 3073 3072 3070 3064 3062 3056 3053 3049 3041 3037 3037 3034 3031 3029 3017 3014 3010 3007 3004 3002 3000 2998 2996 2994
3072 3072 3070 3071 3070 3072 3072 3073 3071 3071 3075 3077 3077 3075 3072 3072 3072 3070 3070 3071 3067 3068 3068 3066 3059 3056 3046 3047 3043 3035 3032 3029 3027 3025 3020 3018 3012 3010 3008 3004 3003 3000 2998 2996 2995
3066 3066 3065 3066 3065 3067 3068 3069 3067 3069 3068 3069 3070 3069 3070 3069 3067 3065 3063 3063 3062 3061 3061 3061 3057 3055 3043 3043 3038 3031 3029 3027 3025 3022 3020 3016 3013 3010 3009 3005 3003 3002 3000 2998 2998